Torna al catalogo

STARLINK-36336

AttivoComunicazioniSSO
NORAD 67901·PAYLOAD·🇺🇸 United States

Lanciato Feb 21, 2026 da Vandenberg Space Force Base

Loading…

Prossimi Passaggi (prossime 24 ore)

TLE

AggiornatoSource: CelesTrak SupGP

Epoca: Sep 14, 2026, 22:45 UTC

1 67901C 26035Y   26257.94840278 -.00058399  00000+0 -18133-2 0  2573
2 67901  97.2844 189.8913 0001834  84.5755 264.3765 15.33459419    16

Traccia STARLINK-36336 in tempo reale con AllMySat

Download on the App Store